Tracking 30160 objects as of 13-Feb-2025
HD Live streaming from Space Station
objects crossing your sky now

STARLINK-4047

Track STARLINK-4047 now!
10-day predictions
STARLINK-4047 is classified as:


NORAD ID: 53243
Int'l Code: 2022-086B
Perigee: 546.7 km
Apogee: 547.1 km
Inclination: 53.2 °
Period: 95.4 minutes
Semi major axis: 6917 km
RCS: Unknown
Launch date: July 24, 2022
Source: United States (US)
Launch site: AIR FORCE EASTERN TEST RANGE (AFETR)
Your satellite tracking list
Your tracking list is empty




NASA's NSSDC Master Catalog

Two Line Element Set (TLE):
1 53243U 22086B   25044.58136345  .00003456  00000-0  23520-3 0  9998
2 53243  53.2173 150.5869 0000283  34.4914 325.6096 15.08821443142523
Source of the keplerian elements: AFSPC